Time,TemperatureF,DewpointF,PressureIn,WindDirection,WindDirectionDegrees,WindSpeedMPH,WindSpeedGustMPH,Humidity,HourlyPrecipIn,Conditions,Clouds,dailyrainin,SolarRadiationWatts/m^2,SoftwareType,DateUTC
2013-01-30 00:09:00,29.8,21.0,30.17,NNW,342,0.0,0.0,69,0.00,,,0.00,0,weatherlink.com 1.10,2013-01-30 07:09:00,
2013-01-30 00:23:00,29.6,21.0,30.17,NNW,342,1.0,3.0,70,0.00,,,0.00,0,weatherlink.com 1.10,2013-01-30 07:23:00,
2013-01-30 00:38:00,30.4,21.0,30.17,NW,314,4.0,6.0,69,0.00,,,0.00,0,weatherlink.com 1.10,2013-01-30 07:38:00,
2013-01-30 00:55:00,31.5,22.0,30.17,NW,307,2.0,6.0,67,0.00,,,0.00,0,weatherlink.com 1.10,2013-01-30 07:55:00,
2013-01-30 01:08:00,31.6,22.0,30.17,NW,309,2.0,4.0,67,0.00,,,0.00,0,weatherlink.com 1.10,2013-01-30 08:08:00,
2013-01-30 01:24:00,31.4,22.0,30.18,WNW,295,3.0,5.0,68,0.00,,,0.00,0,weatherlink.com 1.10,2013-01-30 08:24:00,
2013-01-30 01:38:00,31.0,22.0,30.19,WNW,302,0.0,3.0,68,0.00,,,0.00,0,weatherlink.com 1.10,2013-01-30 08:38:00,
2013-01-30 01:55:00,30.4,21.0,30.19,WNW,302,1.0,1.0,68,0.00,,,0.00,0,weatherlink.com 1.10,2013-01-30 08:55:00,
2013-01-30 02:08:00,29.5,21.0,30.18,WNW,303,0.0,2.0,70,0.00,,,0.00,0,weatherlink.com 1.10,2013-01-30 09:08:00,
2013-01-30 02:23:00,29.0,21.0,30.19,WNW,303,0.0,2.0,72,0.00,,,0.00,0,weatherlink.com 1.10,2013-01-30 09:23:00,
2013-01-30 02:39:00,29.4,22.0,30.19,NW,321,0.0,3.0,73,0.00,,,0.00,0,weatherlink.com 1.10,2013-01-30 09:39:00,
2013-01-30 02:54:00,30.2,22.0,30.20,NW,311,0.0,4.0,71,0.00,,,0.00,0,weatherlink.com 1.10,2013-01-30 09:54:00,
2013-01-30 03:09:00,31.1,22.0,30.20,NW,305,1.0,6.0,69,0.00,,,0.00,0,weatherlink.com 1.10,2013-01-30 10:09:00,
2013-01-30 03:24:00,31.1,22.0,30.20,NW,307,0.0,2.0,69,0.00,,,0.00,0,weatherlink.com 1.10,2013-01-30 10:24:00,
2013-01-30 03:39:00,30.8,22.0,30.21,NW,307,0.0,2.0,69,0.00,,,0.00,0,weatherlink.com 1.10,2013-01-30 10:39:00,
2013-01-30 03:54:00,30.4,21.0,30.20,NW,307,0.0,1.0,69,0.00,,,0.00,0,weatherlink.com 1.10,2013-01-30 10:54:00,
2013-01-30 04:09:00,29.6,21.0,30.21,NW,307,0.0,1.0,70,0.00,,,0.00,0,weatherlink.com 1.10,2013-01-30 11:09:00,
2013-01-30 04:24:00,28.5,21.0,30.21,NW,307,0.0,1.0,73,0.00,,,0.00,0,weatherlink.com 1.10,2013-01-30 11:24:00,
2013-01-30 04:39:00,27.8,21.0,30.21,NW,323,1.0,1.0,74,0.00,,,0.00,0,weatherlink.com 1.10,2013-01-30 11:39:00,
2013-01-30 04:54:00,26.9,21.0,30.22,North,1,0.0,2.0,77,0.00,,,0.00,0,weatherlink.com 1.10,2013-01-30 11:54:00,
2013-01-30 05:09:00,26.2,20.0,30.22,North,11,0.0,2.0,77,0.00,,,0.00,0,weatherlink.com 1.10,2013-01-30 12:09:00,
2013-01-30 05:24:00,25.2,20.0,30.24,NNE,12,0.0,1.0,80,0.00,,,0.00,0,weatherlink.com 1.10,2013-01-30 12:24:00,
2013-01-30 05:39:00,25.2,20.0,30.25,NNE,12,0.0,1.0,81,0.00,,,0.00,0,weatherlink.com 1.10,2013-01-30 12:39:00,
2013-01-30 05:54:00,24.8,20.0,30.25,NNE,12,0.0,1.0,81,0.00,,,0.00,0,weatherlink.com 1.10,2013-01-30 12:54:00,
2013-01-30 06:09:00,24.3,20.0,30.25,ENE,68,1.0,2.0,83,0.00,,,0.00,0,weatherlink.com 1.10,2013-01-30 13:09:00,
2013-01-30 06:24:00,24.3,20.0,30.26,ENE,68,0.0,1.0,83,0.00,,,0.00,0,weatherlink.com 1.10,2013-01-30 13:24:00,
2013-01-30 06:39:00,24.3,20.0,30.26,ENE,68,0.0,1.0,84,0.00,,,0.00,0,weatherlink.com 1.10,2013-01-30 13:39:00,
2013-01-30 06:54:00,24.0,20.0,30.26,ENE,68,0.0,1.0,84,0.00,,,0.00,0,weatherlink.com 1.10,2013-01-30 13:54:00,
2013-01-30 07:09:00,23.8,20.0,30.27,ENE,68,0.0,1.0,84,0.00,,,0.00,0,weatherlink.com 1.10,2013-01-30 14:09:00,
2013-01-30 07:25:00,23.9,20.0,30.28,ENE,68,0.0,1.0,85,0.00,,,0.00,11,weatherlink.com 1.10,2013-01-30 14:25:00,
2013-01-30 07:39:00,23.6,20.0,30.29,ENE,68,0.0,1.0,85,0.00,,,0.00,42,weatherlink.com 1.10,2013-01-30 14:39:00,
2013-01-30 07:54:00,25.2,22.0,30.30,ENE,68,0.0,0.0,87,0.00,,,0.00,100,weatherlink.com 1.10,2013-01-30 14:54:00,
2013-01-30 08:09:00,28.6,24.0,30.29,ENE,66,0.0,2.0,83,0.00,,,0.00,158,weatherlink.com 1.10,2013-01-30 15:09:00,
2013-01-30 08:24:00,31.2,25.0,30.30,NE,51,0.0,1.0,77,0.00,,,0.00,211,weatherlink.com 1.10,2013-01-30 15:24:00,
2013-01-30 08:40:00,33.5,25.0,30.30,NW,307,2.0,6.0,70,0.00,,,0.00,267,weatherlink.com 1.10,2013-01-30 15:40:00,
2013-01-30 08:56:00,35.7,23.0,30.29,NNW,335,2.0,6.0,61,0.00,,,0.00,323,weatherlink.com 1.10,2013-01-30 15:56:00,
2013-01-30 09:10:00,37.1,22.0,30.30,NNW,340,1.0,7.0,54,0.00,,,0.00,369,weatherlink.com 1.10,2013-01-30 16:10:00,
2013-01-30 09:25:00,38.2,21.0,30.30,NW,304,3.0,7.0,51,0.00,,,0.00,420,weatherlink.com 1.10,2013-01-30 16:25:00,
2013-01-30 09:40:00,38.7,21.0,30.31,NNW,344,2.0,8.0,49,0.00,,,0.00,462,weatherlink.com 1.10,2013-01-30 16:40:00,
2013-01-30 09:55:00,39.2,19.0,30.31,WNW,301,6.0,7.0,44,0.00,,,0.00,508,weatherlink.com 1.10,2013-01-30 16:55:00,
2013-01-30 10:10:00,39.6,16.0,30.31,NW,307,4.0,9.0,39,0.00,,,0.00,547,weatherlink.com 1.10,2013-01-30 17:10:00,
2013-01-30 10:25:00,40.2,17.0,30.32,West,271,4.0,9.0,39,0.00,,,0.00,582,weatherlink.com 1.10,2013-01-30 17:25:00,
2013-01-30 10:40:00,40.8,20.0,30.32,West,281,11.0,11.0,43,0.00,,,0.00,615,weatherlink.com 1.10,2013-01-30 17:40:00,
2013-01-30 10:56:00,41.1,22.0,30.32,West,273,7.0,10.0,46,0.00,,,0.00,645,weatherlink.com 1.10,2013-01-30 17:56:00,
2013-01-30 11:10:00,41.4,21.0,30.32,WSW,257,6.0,13.0,44,0.00,,,0.00,670,weatherlink.com 1.10,2013-01-30 18:10:00,
2013-01-30 11:26:00,42.0,21.0,30.32,West,259,5.0,10.0,44,0.00,,,0.00,691,weatherlink.com 1.10,2013-01-30 18:26:00,
2013-01-30 11:40:00,41.8,20.0,30.30,WSW,239,4.0,9.0,42,0.00,,,0.00,708,weatherlink.com 1.10,2013-01-30 18:40:00,
2013-01-30 11:57:00,43.3,21.0,30.30,WNW,303,2.0,9.0,41,0.00,,,0.00,722,weatherlink.com 1.10,2013-01-30 18:57:00,
2013-01-30 12:10:00,43.2,20.0,30.29,West,269,0.0,9.0,40,0.00,,,0.00,731,weatherlink.com 1.10,2013-01-30 19:10:00,
2013-01-30 12:25:00,44.3,22.0,30.28,WNW,295,3.0,7.0,41,0.00,,,0.00,738,weatherlink.com 1.10,2013-01-30 19:25:00,
2013-01-30 12:40:00,44.2,22.0,30.27,SSW,210,2.0,7.0,41,0.00,,,0.00,738,weatherlink.com 1.10,2013-01-30 19:40:00,
2013-01-30 12:56:00,44.7,22.0,30.26,West,260,6.0,7.0,40,0.00,,,0.00,737,weatherlink.com 1.10,2013-01-30 19:56:00,
2013-01-30 13:12:00,45.4,22.0,30.25,West,269,2.0,11.0,39,0.00,,,0.00,719,weatherlink.com 1.10,2013-01-30 20:12:00,
2013-01-30 13:27:00,45.9,21.0,30.24,West,281,3.0,6.0,37,0.00,,,0.00,722,weatherlink.com 1.10,2013-01-30 20:27:00,
2013-01-30 13:41:00,45.4,20.0,30.23,WSW,255,2.0,6.0,37,0.00,,,0.00,707,weatherlink.com 1.10,2013-01-30 20:41:00,
2013-01-30 13:56:00,46.5,21.0,30.23,WNW,284,5.0,9.0,37,0.00,,,0.00,643,weatherlink.com 1.10,2013-01-30 20:56:00,
2013-01-30 14:11:00,46.7,20.0,30.21,WSW,243,2.0,10.0,34,0.00,,,0.00,622,weatherlink.com 1.10,2013-01-30 21:11:00,
2013-01-30 14:26:00,47.9,22.0,30.20,West,269,7.0,10.0,36,0.00,,,0.00,635,weatherlink.com 1.10,2013-01-30 21:26:00,
2013-01-30 14:41:00,47.8,20.0,30.20,WSW,254,4.0,11.0,33,0.00,,,0.00,598,weatherlink.com 1.10,2013-01-30 21:41:00,
2013-01-30 14:56:00,48.3,20.0,30.20,West,259,5.0,8.0,32,0.00,,,0.00,552,weatherlink.com 1.10,2013-01-30 21:56:00,
2013-01-30 15:11:00,48.6,17.0,30.20,WNW,291,6.0,9.0,29,0.00,,,0.00,501,weatherlink.com 1.10,2013-01-30 22:11:00,
2013-01-30 15:26:00,48.8,19.0,30.20,NW,312,4.0,10.0,31,0.00,,,0.00,455,weatherlink.com 1.10,2013-01-30 22:26:00,
2013-01-30 15:41:00,49.2,20.0,30.20,WNW,294,4.0,10.0,31,0.00,,,0.00,443,weatherlink.com 1.10,2013-01-30 22:41:00,
2013-01-30 15:56:00,49.1,18.0,30.20,WNW,290,3.0,9.0,29,0.00,,,0.00,374,weatherlink.com 1.10,2013-01-30 22:56:00,
2013-01-30 16:11:00,49.1,18.0,30.21,West,276,7.0,8.0,29,0.00,,,0.00,297,weatherlink.com 1.10,2013-01-30 23:11:00,
2013-01-30 16:27:00,48.8,18.0,30.20,WNW,295,4.0,9.0,29,0.00,,,0.00,290,weatherlink.com 1.10,2013-01-30 23:27:00,
2013-01-30 16:42:00,48.9,19.0,30.20,WNW,293,6.0,10.0,30,0.00,,,0.00,214,weatherlink.com 1.10,2013-01-30 23:42:00,
2013-01-30 16:56:00,48.4,19.0,30.19,WNW,293,5.0,11.0,31,0.00,,,0.00,155,weatherlink.com 1.10,2013-01-30 23:56:00,
2013-01-30 17:12:00,47.9,19.0,30.19,NW,306,5.0,9.0,32,0.00,,,0.00,77,weatherlink.com 1.10,2013-01-31 00:12:00,
2013-01-30 17:27:00,47.0,20.0,30.18,WNW,301,2.0,8.0,35,0.00,,,0.00,47,weatherlink.com 1.10,2013-01-31 00:27:00,
2013-01-30 17:42:00,46.5,20.0,30.18,WNW,295,3.0,7.0,35,0.00,,,0.00,16,weatherlink.com 1.10,2013-01-31 00:42:00,
2013-01-30 17:57:00,45.6,21.0,30.18,WNW,292,1.0,4.0,38,0.00,,,0.00,0,weatherlink.com 1.10,2013-01-31 00:57:00,
2013-01-30 18:12:00,44.5,21.0,30.18,NW,319,0.0,2.0,40,0.00,,,0.00,0,weatherlink.com 1.10,2013-01-31 01:12:00,
2013-01-30 18:29:00,43.2,20.0,30.18,North,356,1.0,3.0,40,0.00,,,0.00,0,weatherlink.com 1.10,2013-01-31 01:29:00,
2013-01-30 18:41:00,42.5,20.0,30.19,North,356,0.0,2.0,40,0.00,,,0.00,0,weatherlink.com 1.10,2013-01-31 01:41:00,
2013-01-30 18:57:00,40.6,23.0,30.19,ENE,57,1.0,3.0,49,0.00,,,0.00,0,weatherlink.com 1.10,2013-01-31 01:57:00,
2013-01-30 19:12:00,37.4,23.0,30.19,ENE,61,1.0,2.0,56,0.00,,,0.00,0,weatherlink.com 1.10,2013-01-31 02:12:00,
2013-01-30 19:27:00,35.8,23.0,30.20,ENE,65,0.0,2.0,61,0.00,,,0.00,0,weatherlink.com 1.10,2013-01-31 02:27:00,
2013-01-30 19:41:00,35.0,24.0,30.19,East,83,0.0,3.0,64,0.00,,,0.00,0,weatherlink.com 1.10,2013-01-31 02:41:00,
2013-01-30 19:57:00,34.6,24.0,30.19,East,83,1.0,2.0,66,0.00,,,0.00,0,weatherlink.com 1.10,2013-01-31 02:57:00,
2013-01-30 20:12:00,34.3,23.0,30.19,East,92,2.0,4.0,64,0.00,,,0.00,0,weatherlink.com 1.10,2013-01-31 03:12:00,
2013-01-30 20:26:00,34.6,23.0,30.19,East,93,2.0,2.0,64,0.00,,,0.00,0,weatherlink.com 1.10,2013-01-31 03:26:00,
2013-01-30 20:41:00,34.3,24.0,30.20,East,95,1.0,4.0,66,0.00,,,0.00,0,weatherlink.com 1.10,2013-01-31 03:41:00,
2013-01-30 20:56:00,33.7,24.0,30.20,East,91,1.0,3.0,68,0.00,,,0.00,0,weatherlink.com 1.10,2013-01-31 03:56:00,
2013-01-30 21:14:00,33.9,24.0,30.20,East,91,2.0,4.0,67,0.00,,,0.00,0,weatherlink.com 1.10,2013-01-31 04:14:00,
2013-01-30 21:27:00,33.8,24.0,30.20,East,88,1.0,4.0,67,0.00,,,0.00,0,weatherlink.com 1.10,2013-01-31 04:27:00,
2013-01-30 21:41:00,33.7,23.0,30.21,East,88,3.0,3.0,66,0.00,,,0.00,0,weatherlink.com 1.10,2013-01-31 04:41:00,
2013-01-30 21:57:00,32.9,23.0,30.20,East,88,2.0,3.0,68,0.00,,,0.00,0,weatherlink.com 1.10,2013-01-31 04:57:00,
2013-01-30 22:12:00,33.0,23.0,30.20,East,94,2.0,4.0,68,0.00,,,0.00,0,weatherlink.com 1.10,2013-01-31 05:12:00,
2013-01-30 22:27:00,32.7,24.0,30.20,East,86,1.0,3.0,69,0.00,,,0.00,0,weatherlink.com 1.10,2013-01-31 05:27:00,
2013-01-30 22:42:00,32.5,23.0,30.22,East,88,2.0,4.0,69,0.00,,,0.00,0,weatherlink.com 1.10,2013-01-31 05:42:00,
2013-01-30 22:57:00,32.3,23.0,30.22,East,88,0.0,3.0,69,0.00,,,0.00,0,weatherlink.com 1.10,2013-01-31 05:57:00,
2013-01-30 23:12:00,32.0,23.0,30.23,East,88,1.0,4.0,70,0.00,,,0.00,0,weatherlink.com 1.10,2013-01-31 06:12:00,
2013-01-30 23:27:00,31.8,23.0,30.23,East,91,0.0,5.0,71,0.00,,,0.00,0,weatherlink.com 1.10,2013-01-31 06:27:00,
2013-01-30 23:42:00,32.1,23.0,30.23,East,91,1.0,3.0,69,0.00,,,0.00,0,weatherlink.com 1.10,2013-01-31 06:42:00,
2013-01-30 23:57:00,31.9,23.0,30.23,East,90,0.0,3.0,70,0.00,,,0.00,0,weatherlink.com 1.10,2013-01-31 06:57:00,